Regional Weather Roundup
Issued by NWS Raleigh/Durham, NC

Home | Current Version | Previous Version | Text Only | Print | Product List | Glossary On
Versions: 1 2 3 4 5 6 7 8 9 10 11 12 13 14 15 16 17 18 19 20 21 22 23 24 25 26 27 28 29 30 31 32 33 34 35 36 37 38 39 40 41 42 43 44 45 46 47 48 49 50
000
ASUS42 KRAH 310610
RWRRAH
NORTH CAROLINA WEATHER ROUNDUP
NATIONAL WEATHER SERVICE RALEIGH NC
200 AM EDT THU JUL 31 2014

NOTE: "FAIR" INDICATES FEW OR NO CLOUDS BELOW 12,000 FEET WITH NO
SIGNIFICANT WEATHER AND/OR OBSTRUCTIONS TO VISIBILITY.

NCZ001-053-055-056-065-067-310700-
WESTERN NORTH CAROLINA

CITY           SKY/WX    TMP DP  RH WIND       PRES   REMARKS
ASHEVILLE      MOCLDY    61  57  87 CALM      30.16S
JEFFERSON      MOCLDY    55  49  79 CALM      30.19S
MORGANTON      PTCLDY    63  60  91 NW3       30.16S
HICKORY        PTCLDY    65  63  93 NW5       30.10S
RUTHERFORDTON  MOCLDY    65  61  86 NW8       30.11S
MOUNT AIRY     MOCLDY    64  59  83 CALM      30.12R
BOONE          MOCLDY    50  50  99 CALM      30.21R
$$

NCZ021-022-025-041-071-084-088-310700-
CENTRAL NORTH CAROLINA

CITY           SKY/WX    TMP DP  RH WIND       PRES   REMARKS
CHARLOTTE      CLOUDY    70  64  81 CALM      30.09S
GREENSBORO     MOCLDY    68  62  81 S3        30.09S
WINSTON-SALEM  MOCLDY    67  61  81 CALM      30.11S
RALEIGH-DURHAM CLOUDY    70  64  81 S3        30.09S
FORT BRAGG     CLOUDY    70  67  92 N1        30.09S
FAYETTEVILLE   CLOUDY    74  65  73 NW5       30.08S
BURLINGTON     MOCLDY    65  61  87 CALM      30.09S
LAURINBURG     CLOUDY    70  67  90 NE6       30.08F
$$

NCZ011-015-027-028-043-044-047-080-103-310700-
NORTHEASTERN NORTH CAROLINA

CITY           SKY/WX    TMP DP  RH WIND       PRES   REMARKS
ROCKY MT-WILSO MOCLDY    68  64  87 CALM      30.08F
GREENVILLE     MOCLDY    70  64  83 CALM      30.10S
WASHINGTON     CLOUDY    68  63  84 CALM      30.08F
ELIZABETH CITY PTCLDY    71  61  70 CALM      30.09S
MANTEO         NOT AVBL
CAPE HATTERAS  CLOUDY    73  65  75 NE6       30.08F
$$

NCZ078-087-090-091-093-098-101-310700-
SOUTHEASTERN NORTH CAROLINA

CITY           SKY/WX    TMP DP  RH WIND       PRES   REMARKS
LUMBERTON      CLOUDY    74  66  76 N6        30.07S
GOLDSBORO      CLOUDY    69  69  98 CALM      30.07S
KINSTON        CLOUDY    70  65  84 S3        30.09S
KENANSVILLE    PTCLDY    67  65  94 CALM      30.08F
NEW BERN       CLOUDY    70  66  87 CALM      30.08F
CHERRY POINT   MOCLDY    70  66  87 CALM      30.08F
BEAUFORT       PTCLDY    73  68  84 NE3       30.07F
JACKSONVILLE   PTCLDY    73  68  84 E7        30.06F
WILMINGTON     CLEAR     72  69  90 CALM      30.05F
$$



USA.gov is the U.S. government's official web portal to all federal, state and local government web resources and services.